owner,sensor,date,latitude,longitude,air_pressure(mBar),qcFlag 
TABS,ioos:station:wmo:42046:1,2007-03-08T10:00:00Z,27.8903,-94.0367,1019.63,11111222 
TABS,ioos:station:wmo:42046:1,2007-03-08T10:30:00Z,27.8903,-94.0367,1019.67,11111222 
TABS,ioos:station:wmo:42046:1,2007-03-08T11:00:00Z,27.8903,-94.0367,1019.8,11111222 
TABS,ioos:station:wmo:42046:1,2007-03-08T11:30:00Z,27.8903,-94.0367,1020.03,11111222 
TABS,ioos:station:wmo:42046:1,2007-03-08T12:00:00Z,27.8903,-94.0367,1020.02,11111222 
TABS,ioos:station:wmo:42046:1,2007-03-08T12:30:00Z,27.8903,-94.0367,1020.32,11111222 
TABS,ioos:station:wmo:42046:1,2007-03-08T13:00:00Z,27.8903,-94.0367,1020.37,11111222 
TABS,ioos:station:wmo:42046:1,2007-03-08T13:30:00Z,27.8903,-94.0367,1020.63,11111222 
TABS,ioos:station:wmo:42046:1,2007-03-08T14:00:00Z,27.8903,-94.0367,1020.79,11111222 
TABS,ioos:station:wmo:42046:1,2007-03-08T14:30:00Z,27.8903,-94.0367,1021.22,11111222 
TABS,ioos:station:wmo:42046:1,2007-03-08T15:00:00Z,27.8903,-94.0367,1021.61,11111222 
TABS,ioos:station:wmo:42046:1,2007-03-08T15:30:00Z,27.8903,-94.0367,1021.76,11111222 
TABS,ioos:station:wmo:42046:1,2007-03-08T16:00:00Z,27.8903,-94.0367,1021.78,11111222 
TABS,ioos:station:wmo:42046:1,2007-03-08T16:30:00Z,27.8903,-94.0367,1021.72,11111222 
TABS,ioos:station:wmo:42046:1,2007-03-08T17:00:00Z,27.8903,-94.0367,1021.44,11111222 
TABS,ioos:station:wmo:42046:1,2007-03-08T17:30:00Z,27.8903,-94.0367,1021.17,11111222 
TABS,ioos:station:wmo:42046:1,2007-03-08T18:00:00Z,27.8903,-94.0367,1020.8,11111222 
TABS,ioos:station:wmo:42046:1,2007-03-08T18:30:00Z,27.8903,-94.0367,1020.35,11111222 
TABS,ioos:station:wmo:42046:1,2007-03-08T19:00:00Z,27.8903,-94.0367,1019.92,11111222 
TABS,ioos:station:wmo:42046:1,2007-03-08T19:30:00Z,27.8903,-94.0367,1019.51,11111222 
TABS,ioos:station:wmo:42046:1,2007-03-08T20:00:00Z,27.8903,-94.0367,1019.11,11111222 
TABS,ioos:station:wmo:42046:1,2007-03-08T20:30:00Z,27.8903,-94.0367,1018.7,11111222 
TABS,ioos:station:wmo:42046:1,2007-03-08T21:00:00Z,27.8903,-94.0367,1018.37,11111222 
TABS,ioos:station:wmo:42046:1,2007-03-08T21:30:00Z,27.8903,-94.0367,1018.18,11111222 
TABS,ioos:station:wmo:42046:1,2007-03-08T22:00:00Z,27.8903,-94.0367,1017.94,11111222 
TABS,ioos:station:wmo:42046:1,2007-03-08T22:30:00Z,27.8903,-94.0367,1017.73,11111222 
TABS,ioos:station:wmo:42046:1,2007-03-08T23:00:00Z,27.8903,-94.0367,1017.59,11111222 
TABS,ioos:station:wmo:42046:1,2007-03-08T23:30:00Z,27.8903,-94.0367,1017.73,11111222 
TABS,ioos:station:wmo:42046:1,2007-03-09T00:00:00Z,27.8903,-94.0367,1017.93,11111222 
TABS,ioos:station:wmo:42046:1,2007-03-09T00:30:00Z,27.8903,-94.0367,1017.88,11111222 
TABS,ioos:station:wmo:42046:1,2007-03-09T01:00:00Z,27.8903,-94.0367,1017.99,11111222 
TABS,ioos:station:wmo:42046:1,2007-03-09T01:30:00Z,27.8903,-94.0367,1018.05,11111222 
TABS,ioos:station:wmo:42046:1,2007-03-09T02:00:00Z,27.8903,-94.0367,1018.13,11111222 
TABS,ioos:station:wmo:42046:1,2007-03-09T02:30:00Z,27.8903,-94.0367,1018.42,11111222 
TABS,ioos:station:wmo:42046:1,2007-03-09T03:00:00Z,27.8903,-94.0367,1018.73,11111222 
TABS,ioos:station:wmo:42046:1,2007-03-09T03:30:00Z,27.8903,-94.0367,1018.7,11111222 
TABS,ioos:station:wmo:42046:1,2007-03-09T04:00:00Z,27.8903,-94.0367,1018.84,11111222 
TABS,ioos:station:wmo:42046:1,2007-03-09T04:30:00Z,27.8903,-94.0367,1018.62,11111222 
TABS,ioos:station:wmo:42046:1,2007-03-09T05:00:00Z,27.8903,-94.0367,1018.38,11111222 
TABS,ioos:station:wmo:42046:1,2007-03-09T05:30:00Z,27.8903,-94.0367,1018.16,11111222 
TABS,ioos:station:wmo:42046:1,2007-03-09T06:00:00Z,27.8903,-94.0367,1018.14,11111222 
TABS,ioos:station:wmo:42046:1,2007-03-09T06:30:00Z,27.8903,-94.0367,1017.92,11111222 
TABS,ioos:station:wmo:42046:1,2007-03-09T07:00:00Z,27.8903,-94.0367,1017.81,11111222 
TABS,ioos:station:wmo:42046:1,2007-03-09T07:30:00Z,27.8903,-94.0367,1017.55,11111222 
TABS,ioos:station:wmo:42046:1,2007-03-09T08:00:00Z,27.8903,-94.0367,1017.38,11111222 
TABS,ioos:station:wmo:42046:1,2007-03-09T08:30:00Z,27.8903,-94.0367,1017.23,11111222 
TABS,ioos:station:wmo:42046:1,2007-03-09T09:00:00Z,27.8903,-94.0367,1017.16,11111222 
TABS,ioos:station:wmo:42046:1,2007-03-09T09:30:00Z,27.8903,-94.0367,1017.24,11111222 
TABS,ioos:station:wmo:42046:1,2007-03-09T10:00:00Z,27.8903,-94.0367,1017.11,11111222 
TABS,ioos:station:wmo:42046:1,2007-03-09T10:30:00Z,27.8903,-94.0367,1017.17,11111222 
TABS,ioos:station:wmo:42046:1,2007-03-09T11:00:00Z,27.8903,-94.0367,1017.04,11111222 
TABS,ioos:station:wmo:42046:1,2007-03-09T11:30:00Z,27.8903,-94.0367,1017.5,11111222 
TABS,ioos:station:wmo:42046:1,2007-03-09T12:00:00Z,27.8903,-94.0367,1018.03,11111222 
TABS,ioos:station:wmo:42046:1,2007-03-09T12:30:00Z,27.8903,-94.0367,1018.2,11111222 
TABS,ioos:station:wmo:42046:1,2007-03-09T13:00:00Z,27.8903,-94.0367,1018.51,11111222 
TABS,ioos:station:wmo:42046:1,2007-03-09T13:30:00Z,27.8903,-94.0367,1018.68,11111222 
TABS,ioos:station:wmo:42046:1,2007-03-09T14:00:00Z,27.8903,-94.0367,1018.73,11111222 
TABS,ioos:station:wmo:42046:1,2007-03-09T14:30:00Z,27.8903,-94.0367,1019.19,11111222 
TABS,ioos:station:wmo:42046:1,2007-03-09T15:00:00Z,27.8903,-94.0367,1019.43,11111222 
TABS,ioos:station:wmo:42046:1,2007-03-09T15:30:00Z,27.8903,-94.0367,1019.63,11111222 
TABS,ioos:station:wmo:42046:1,2007-03-09T16:00:00Z,27.8903,-94.0367,1019.73,11111222 
TABS,ioos:station:wmo:42046:1,2007-03-09T16:30:00Z,27.8903,-94.0367,1019.9,11111222 
TABS,ioos:station:wmo:42046:1,2007-03-09T17:00:00Z,27.8903,-94.0367,1019.96,11111222 
TABS,ioos:station:wmo:42046:1,2007-03-09T17:30:00Z,27.8903,-94.0367,1019.82,11111222 
TABS,ioos:station:wmo:42046:1,2007-03-09T18:00:00Z,27.8903,-94.0367,1019.44,11111222 
TABS,ioos:station:wmo:42046:1,2007-03-09T18:30:00Z,27.8903,-94.0367,1019.08,11111222 
TABS,ioos:station:wmo:42046:1,2007-03-09T19:00:00Z,27.8903,-94.0367,1018.93,11111222 
TABS,ioos:station:wmo:42046:1,2007-03-09T19:30:00Z,27.8903,-94.0367,1018.71,11111222 
TABS,ioos:station:wmo:42046:1,2007-03-09T20:00:00Z,27.8903,-94.0367,1018.08,11111222 
TABS,ioos:station:wmo:42046:1,2007-03-09T20:30:00Z,27.8903,-94.0367,1018.0,11111222 
TABS,ioos:station:wmo:42046:1,2007-03-09T21:00:00Z,27.8903,-94.0367,1017.8,11111222 
TABS,ioos:station:wmo:42046:1,2007-03-09T21:30:00Z,27.8903,-94.0367,1017.68,11111222 
TABS,ioos:station:wmo:42046:1,2007-03-09T22:00:00Z,27.8903,-94.0367,1017.67,11111222 
TABS,ioos:station:wmo:42046:1,2007-03-09T22:30:00Z,27.8903,-94.0367,1017.91,11111222 
TABS,ioos:station:wmo:42046:1,2007-03-09T23:00:00Z,27.8903,-94.0367,1018.21,11111222 
TABS,ioos:station:wmo:42046:1,2007-03-09T23:30:00Z,27.8903,-94.0367,1018.19,11111222 
TABS,ioos:station:wmo:42046:1,2007-03-10T00:00:00Z,27.8903,-94.0367,1018.13,11111222 
TABS,ioos:station:wmo:42046:1,2007-03-10T00:30:00Z,27.8903,-94.0367,1018.26,11111222 
TABS,ioos:station:wmo:42046:1,2007-03-10T01:00:00Z,27.8903,-94.0367,1018.63,11111222 
TABS,ioos:station:wmo:42046:1,2007-03-10T01:30:00Z,27.8903,-94.0367,1018.96,11111222 
TABS,ioos:station:wmo:42046:1,2007-03-10T02:00:00Z,27.8903,-94.0367,1019.31,11111222 
TABS,ioos:station:wmo:42046:1,2007-03-10T02:30:00Z,27.8903,-94.0367,1019.12,11111222 
TABS,ioos:station:wmo:42046:1,2007-03-10T03:00:00Z,27.8903,-94.0367,1019.09,11111222 
TABS,ioos:station:wmo:42046:1,2007-03-10T03:30:00Z,27.8903,-94.0367,1019.16,11111222 
TABS,ioos:station:wmo:42046:1,2007-03-10T04:00:00Z,27.8903,-94.0367,1019.02,11111222 
TABS,ioos:station:wmo:42046:1,2007-03-10T04:30:00Z,27.8903,-94.0367,1019.15,11111222 
TABS,ioos:station:wmo:42046:1,2007-03-10T05:00:00Z,27.8903,-94.0367,1019.14,11111222 
TABS,ioos:station:wmo:42046:1,2007-03-10T05:30:00Z,27.8903,-94.0367,1019.04,11111222 
TABS,ioos:station:wmo:42046:1,2007-03-10T06:00:00Z,27.8903,-94.0367,1019.1,11111222 
TABS,ioos:station:wmo:42046:1,2007-03-10T06:30:00Z,27.8903,-94.0367,1018.99,11111222 
TABS,ioos:station:wmo:42046:1,2007-03-10T07:00:00Z,27.8903,-94.0367,1019.05,11111222 
TABS,ioos:station:wmo:42046:1,2007-03-10T07:30:00Z,27.8903,-94.0367,1018.94,11111222 
TABS,ioos:station:wmo:42046:1,2007-03-10T08:00:00Z,27.8903,-94.0367,1018.69,11111222 
TABS,ioos:station:wmo:42046:1,2007-03-10T08:30:00Z,27.8903,-94.0367,1018.74,11111222 
TABS,ioos:station:wmo:42046:1,2007-03-10T09:00:00Z,27.8903,-94.0367,1018.67,11111222 
TABS,ioos:station:wmo:42046:1,2007-03-10T09:30:00Z,27.8903,-94.0367,1018.86,11111222 
TABS,ioos:station:wmo:42046:1,2007-03-10T10:00:00Z,27.8903,-94.0367,1018.99,11111222 
TABS,ioos:station:wmo:42046:1,2007-03-10T10:30:00Z,27.8903,-94.0367,1019.15,11111222 
TABS,ioos:station:wmo:42046:1,2007-03-10T11:00:00Z,27.8903,-94.0367,1019.38,11111222 
TABS,ioos:station:wmo:42046:1,2007-03-10T11:30:00Z,27.8903,-94.0367,1019.67,11111222 
TABS,ioos:station:wmo:42046:1,2007-03-10T12:00:00Z,27.8903,-94.0367,1019.84,11111222 
TABS,ioos:station:wmo:42046:1,2007-03-10T12:30:00Z,27.8903,-94.0367,1020.17,11111222 
TABS,ioos:station:wmo:42046:1,2007-03-10T13:00:00Z,27.8903,-94.0367,1020.56,11111222 
TABS,ioos:station:wmo:42046:1,2007-03-10T13:30:00Z,27.8903,-94.0367,1020.73,11111222 
TABS,ioos:station:wmo:42046:1,2007-03-10T14:00:00Z,27.8903,-94.0367,1020.8,11111222 
TABS,ioos:station:wmo:42046:1,2007-03-10T14:30:00Z,27.8903,-94.0367,1020.88,11111222 
TABS,ioos:station:wmo:42046:1,2007-03-10T15:00:00Z,27.8903,-94.0367,1020.99,11111222 
TABS,ioos:station:wmo:42046:1,2007-03-10T15:30:00Z,27.8903,-94.0367,1021.3,11111222 
TABS,ioos:station:wmo:42046:1,2007-03-10T16:00:00Z,27.8903,-94.0367,1021.41,11111222 
TABS,ioos:station:wmo:42046:1,2007-03-10T16:30:00Z,27.8903,-94.0367,1021.5,11111222 
TABS,ioos:station:wmo:42046:1,2007-03-10T17:00:00Z,27.8903,-94.0367,1021.46,11111222 
TABS,ioos:station:wmo:42046:1,2007-03-10T17:30:00Z,27.8903,-94.0367,1020.98,11111222 
TABS,ioos:station:wmo:42046:1,2007-03-10T18:00:00Z,27.8903,-94.0367,1020.68,11111222 
TABS,ioos:station:wmo:42046:1,2007-03-10T18:30:00Z,27.8903,-94.0367,1020.17,11111222 
TABS,ioos:station:wmo:42046:1,2007-03-10T19:00:00Z,27.8903,-94.0367,1020.03,11111222 
TABS,ioos:station:wmo:42046:1,2007-03-10T19:30:00Z,27.8903,-94.0367,1019.67,11111222 
TABS,ioos:station:wmo:42046:1,2007-03-10T20:00:00Z,27.8903,-94.0367,1019.37,11111222 
TABS,ioos:station:wmo:42046:1,2007-03-10T20:30:00Z,27.8903,-94.0367,1019.41,11111222 
TABS,ioos:station:wmo:42046:1,2007-03-10T21:00:00Z,27.8903,-94.0367,1018.97,11111222 
TABS,ioos:station:wmo:42046:1,2007-03-10T21:30:00Z,27.8903,-94.0367,1019.07,11111222 
TABS,ioos:station:wmo:42046:1,2007-03-10T22:00:00Z,27.8903,-94.0367,1019.39,11111222 
TABS,ioos:station:wmo:42046:1,2007-03-10T22:30:00Z,27.8903,-94.0367,1019.19,11111222 
TABS,ioos:station:wmo:42046:1,2007-03-10T23:00:00Z,27.8903,-94.0367,1019.48,11111222 
TABS,ioos:station:wmo:42046:1,2007-03-10T23:30:00Z,27.8903,-94.0367,1019.66,11111222 
TABS,ioos:station:wmo:42046:1,2007-03-11T00:00:00Z,27.8903,-94.0367,1019.5,11111222 
TABS,ioos:station:wmo:42046:1,2007-03-11T00:30:00Z,27.8903,-94.0367,1019.57,11111222 
TABS,ioos:station:wmo:42046:1,2007-03-11T01:00:00Z,27.8903,-94.0367,1019.78,11111222 
TABS,ioos:station:wmo:42046:1,2007-03-11T01:30:00Z,27.8903,-94.0367,1020.14,11111222 
TABS,ioos:station:wmo:42046:1,2007-03-11T02:00:00Z,27.8903,-94.0367,1020.2,11111222 
TABS,ioos:station:wmo:42046:1,2007-03-11T02:30:00Z,27.8903,-94.0367,1020.17,11111222 
TABS,ioos:station:wmo:42046:1,2007-03-11T03:00:00Z,27.8903,-94.0367,1020.26,11111222 
TABS,ioos:station:wmo:42046:1,2007-03-11T03:30:00Z,27.8903,-94.0367,1020.46,11111222 
TABS,ioos:station:wmo:42046:1,2007-03-11T04:00:00Z,27.8903,-94.0367,1020.57,11111222 
TABS,ioos:station:wmo:42046:1,2007-03-11T04:30:00Z,27.8903,-94.0367,1020.64,11111222 
TABS,ioos:station:wmo:42046:1,2007-03-11T05:00:00Z,27.8903,-94.0367,1020.43,11111222 
TABS,ioos:station:wmo:42046:1,2007-03-11T05:30:00Z,27.8903,-94.0367,1020.1,11111222 
TABS,ioos:station:wmo:42046:1,2007-03-11T06:00:00Z,27.8903,-94.0367,1020.0,11111222 
TABS,ioos:station:wmo:42046:1,2007-03-11T06:30:00Z,27.8903,-94.0367,1019.63,11111222 
TABS,ioos:station:wmo:42046:1,2007-03-11T07:00:00Z,27.8903,-94.0367,1019.29,11111222 
TABS,ioos:station:wmo:42046:1,2007-03-11T07:30:00Z,27.8903,-94.0367,1019.11,11111222 
TABS,ioos:station:wmo:42046:1,2007-03-11T08:00:00Z,27.8903,-94.0367,1018.89,11111222 
TABS,ioos:station:wmo:42046:1,2007-03-11T08:30:00Z,27.8903,-94.0367,1018.66,11111222 
TABS,ioos:station:wmo:42046:1,2007-03-11T09:00:00Z,27.8903,-94.0367,1018.37,11111222 
TABS,ioos:station:wmo:42046:1,2007-03-11T09:30:00Z,27.8903,-94.0367,1018.36,11111222 
TABS,ioos:station:wmo:42046:1,2007-03-11T10:00:00Z,27.8903,-94.0367,1018.14,11111222 
TABS,ioos:station:wmo:42046:1,2007-03-11T10:30:00Z,27.8903,-94.0367,1018.22,11111222 
TABS,ioos:station:wmo:42046:1,2007-03-11T11:00:00Z,27.8903,-94.0367,1018.53,11111222 
TABS,ioos:station:wmo:42046:1,2007-03-11T11:30:00Z,27.8903,-94.0367,1018.81,11111222 
TABS,ioos:station:wmo:42046:1,2007-03-11T12:00:00Z,27.8903,-94.0367,1018.92,11111222 
TABS,ioos:station:wmo:42046:1,2007-03-11T12:30:00Z,27.8903,-94.0367,1019.1,11111222 
TABS,ioos:station:wmo:42046:1,2007-03-11T13:00:00Z,27.8903,-94.0367,1019.25,11111222 
TABS,ioos:station:wmo:42046:1,2007-03-11T13:30:00Z,27.8903,-94.0367,1019.55,11111222 
TABS,ioos:station:wmo:42046:1,2007-03-11T14:00:00Z,27.8903,-94.0367,1019.86,11111222 
TABS,ioos:station:wmo:42046:1,2007-03-11T14:30:00Z,27.8903,-94.0367,1020.11,11111222 
TABS,ioos:station:wmo:42046:1,2007-03-11T15:00:00Z,27.8903,-94.0367,1020.46,11111222 
TABS,ioos:station:wmo:42046:1,2007-03-11T15:30:00Z,27.8903,-94.0367,1020.71,11111222 
TABS,ioos:station:wmo:42046:1,2007-03-11T16:00:00Z,27.8903,-94.0367,1020.83,11111222 
TABS,ioos:station:wmo:42046:1,2007-03-11T16:30:00Z,27.8903,-94.0367,1020.92,11111222 
TABS,ioos:station:wmo:42046:1,2007-03-11T17:00:00Z,27.8903,-94.0367,1020.9,11111222 
TABS,ioos:station:wmo:42046:1,2007-03-11T17:30:00Z,27.8903,-94.0367,1020.78,11111222 
TABS,ioos:station:wmo:42046:1,2007-03-11T18:00:00Z,27.8903,-94.0367,1020.6,11111222 
TABS,ioos:station:wmo:42046:1,2007-03-11T18:30:00Z,27.8903,-94.0367,1020.07,11111222 
TABS,ioos:station:wmo:42046:1,2007-03-11T19:00:00Z,27.8903,-94.0367,1019.69,11111222 
TABS,ioos:station:wmo:42046:1,2007-03-11T19:30:00Z,27.8903,-94.0367,1019.23,11111222 
TABS,ioos:station:wmo:42046:1,2007-03-11T20:00:00Z,27.8903,-94.0367,1018.97,11111222 
TABS,ioos:station:wmo:42046:1,2007-03-11T20:30:00Z,27.8903,-94.0367,1018.62,11111222 
TABS,ioos:station:wmo:42046:1,2007-03-11T21:00:00Z,27.8903,-94.0367,1018.38,11111222 
TABS,ioos:station:wmo:42046:1,2007-03-11T21:30:00Z,27.8903,-94.0367,1018.36,11111222 
TABS,ioos:station:wmo:42046:1,2007-03-11T22:00:00Z,27.8903,-94.0367,1018.14,11111222 
TABS,ioos:station:wmo:42046:1,2007-03-11T22:30:00Z,27.8903,-94.0367,1018.02,11111222 
TABS,ioos:station:wmo:42046:1,2007-03-11T23:00:00Z,27.8903,-94.0367,1017.84,11111222 
TABS,ioos:station:wmo:42046:1,2007-03-11T23:30:00Z,27.8903,-94.0367,1017.94,11111222 
TABS,ioos:station:wmo:42046:1,2007-03-12T00:00:00Z,27.8903,-94.0367,1018.03,11111222 
TABS,ioos:station:wmo:42046:1,2007-03-12T00:30:00Z,27.8903,-94.0367,1018.21,11111222 
TABS,ioos:station:wmo:42046:1,2007-03-12T01:00:00Z,27.8903,-94.0367,1018.51,11111222 
TABS,ioos:station:wmo:42046:1,2007-03-12T01:30:00Z,27.8903,-94.0367,1018.65,11111222 
TABS,ioos:station:wmo:42046:1,2007-03-12T02:00:00Z,27.8903,-94.0367,1018.64,11111222 
TABS,ioos:station:wmo:42046:1,2007-03-12T02:30:00Z,27.8903,-94.0367,1018.84,11111222 
TABS,ioos:station:wmo:42046:1,2007-03-12T03:00:00Z,27.8903,-94.0367,1018.66,11111222 
TABS,ioos:station:wmo:42046:1,2007-03-12T03:30:00Z,27.8903,-94.0367,1018.63,11111222 
TABS,ioos:station:wmo:42046:1,2007-03-12T04:00:00Z,27.8903,-94.0367,1018.6,11111222 
TABS,ioos:station:wmo:42046:1,2007-03-12T04:30:00Z,27.8903,-94.0367,1018.75,11111222 
TABS,ioos:station:wmo:42046:1,2007-03-12T05:00:00Z,27.8903,-94.0367,1018.86,11111222 
TABS,ioos:station:wmo:42046:1,2007-03-12T05:30:00Z,27.8903,-94.0367,1018.86,11111222 
TABS,ioos:station:wmo:42046:1,2007-03-12T06:00:00Z,27.8903,-94.0367,1018.91,11111222 
TABS,ioos:station:wmo:42046:1,2007-03-12T06:30:00Z,27.8903,-94.0367,1018.58,11111222 
TABS,ioos:station:wmo:42046:1,2007-03-12T07:00:00Z,27.8903,-94.0367,1018.47,11111222 
TABS,ioos:station:wmo:42046:1,2007-03-12T07:30:00Z,27.8903,-94.0367,1018.26,11111222 
TABS,ioos:station:wmo:42046:1,2007-03-12T08:00:00Z,27.8903,-94.0367,1018.02,11111222 
TABS,ioos:station:wmo:42046:1,2007-03-12T08:30:00Z,27.8903,-94.0367,1017.68,11111222 
TABS,ioos:station:wmo:42046:1,2007-03-12T09:00:00Z,27.8903,-94.0367,1017.4,11111222 
TABS,ioos:station:wmo:42046:1,2007-03-12T09:30:00Z,27.8903,-94.0367,1017.05,11111222 
TABS,ioos:station:wmo:42046:1,2007-03-12T10:00:00Z,27.8903,-94.0367,1016.9,11111222 
TABS,ioos:station:wmo:42046:1,2007-03-12T10:30:00Z,27.8903,-94.0367,1017.14,11111222 
TABS,ioos:station:wmo:42046:1,2007-03-12T11:00:00Z,27.8903,-94.0367,1016.78,11111222 
TABS,ioos:station:wmo:42046:1,2007-03-12T11:30:00Z,27.8903,-94.0367,1017.13,11111222 
TABS,ioos:station:wmo:42046:1,2007-03-12T12:00:00Z,27.8903,-94.0367,1017.43,11111222 
TABS,ioos:station:wmo:42046:1,2007-03-12T12:30:00Z,27.8903,-94.0367,1017.82,11111222 
TABS,ioos:station:wmo:42046:1,2007-03-12T13:00:00Z,27.8903,-94.0367,1017.4,11111222 
TABS,ioos:station:wmo:42046:1,2007-03-12T13:30:00Z,27.8903,-94.0367,1017.71,11111222 
TABS,ioos:station:wmo:42046:1,2007-03-12T14:00:00Z,27.8903,-94.0367,1019.44,11111222 
TABS,ioos:station:wmo:42046:1,2007-03-12T14:30:00Z,27.8903,-94.0367,1020.89,11111222 
TABS,ioos:station:wmo:42046:1,2007-03-12T15:00:00Z,27.8903,-94.0367,1021.13,11111222 
TABS,ioos:station:wmo:42046:1,2007-03-12T15:30:00Z,27.8903,-94.0367,1021.07,11111222 
TABS,ioos:station:wmo:42046:1,2007-03-12T16:00:00Z,27.8903,-94.0367,1021.63,11111222 
TABS,ioos:station:wmo:42046:1,2007-03-12T16:30:00Z,27.8903,-94.0367,1021.24,11111222 
TABS,ioos:station:wmo:42046:1,2007-03-12T17:00:00Z,27.8903,-94.0367,1021.4,11111222 
TABS,ioos:station:wmo:42046:1,2007-03-12T17:30:00Z,27.8903,-94.0367,1021.06,11111222 
TABS,ioos:station:wmo:42046:1,2007-03-12T18:00:00Z,27.8903,-94.0367,1020.8,11111222 
TABS,ioos:station:wmo:42046:1,2007-03-12T18:30:00Z,27.8903,-94.0367,1020.41,11111222 
TABS,ioos:station:wmo:42046:1,2007-03-12T19:00:00Z,27.8903,-94.0367,1020.25,11111222 
TABS,ioos:station:wmo:42046:1,2007-03-12T19:30:00Z,27.8903,-94.0367,1019.59,11111222 
TABS,ioos:station:wmo:42046:1,2007-03-12T20:00:00Z,27.8903,-94.0367,1018.68,11111222 
TABS,ioos:station:wmo:42046:1,2007-03-12T20:30:00Z,27.8903,-94.0367,1018.86,11111222 
TABS,ioos:station:wmo:42046:1,2007-03-12T21:00:00Z,27.8903,-94.0367,1018.6,11111222 
TABS,ioos:station:wmo:42046:1,2007-03-12T21:30:00Z,27.8903,-94.0367,1018.69,11111222 
TABS,ioos:station:wmo:42046:1,2007-03-12T22:00:00Z,27.8903,-94.0367,1018.45,11111222 
TABS,ioos:station:wmo:42046:1,2007-03-12T22:30:00Z,27.8903,-94.0367,1018.46,11111222 
TABS,ioos:station:wmo:42046:1,2007-03-12T23:00:00Z,27.8903,-94.0367,1018.42,11111222 
TABS,ioos:station:wmo:42046:1,2007-03-12T23:30:00Z,27.8903,-94.0367,1018.3,11111222 
TABS,ioos:station:wmo:42046:1,2007-03-13T00:00:00Z,27.8903,-94.0367,1019.11,11111222 
TABS,ioos:station:wmo:42046:1,2007-03-13T00:30:00Z,27.8903,-94.0367,1019.29,11111222 
TABS,ioos:station:wmo:42046:1,2007-03-13T01:00:00Z,27.8903,-94.0367,1018.92,11111222 
TABS,ioos:station:wmo:42046:1,2007-03-13T01:30:00Z,27.8903,-94.0367,1018.55,11111222 
TABS,ioos:station:wmo:42046:1,2007-03-13T02:00:00Z,27.8903,-94.0367,1017.8,11111222 
TABS,ioos:station:wmo:42046:1,2007-03-13T02:30:00Z,27.8903,-94.0367,1017.41,11111222 
TABS,ioos:station:wmo:42046:1,2007-03-13T03:00:00Z,27.8903,-94.0367,1016.1,11111222 
TABS,ioos:station:wmo:42046:1,2007-03-13T03:30:00Z,27.8903,-94.0367,1018.68,11111222 
TABS,ioos:station:wmo:42046:1,2007-03-13T04:00:00Z,27.8903,-94.0367,1019.05,11111222 
TABS,ioos:station:wmo:42046:1,2007-03-13T04:30:00Z,27.8903,-94.0367,1019.34,11111222 
TABS,ioos:station:wmo:42046:1,2007-03-13T05:00:00Z,27.8903,-94.0367,1019.41,11111222 
TABS,ioos:station:wmo:42046:1,2007-03-13T05:30:00Z,27.8903,-94.0367,1019.03,11111222 
TABS,ioos:station:wmo:42046:1,2007-03-13T06:00:00Z,27.8903,-94.0367,1019.37,11111222 
TABS,ioos:station:wmo:42046:1,2007-03-13T06:30:00Z,27.8903,-94.0367,1019.57,11111222 
TABS,ioos:station:wmo:42046:1,2007-03-13T07:00:00Z,27.8903,-94.0367,1019.75,11111222 
TABS,ioos:station:wmo:42046:1,2007-03-13T07:30:00Z,27.8903,-94.0367,1019.86,11111222 
TABS,ioos:station:wmo:42046:1,2007-03-13T08:00:00Z,27.8903,-94.0367,1019.87,11111222 
TABS,ioos:station:wmo:42046:1,2007-03-13T08:30:00Z,27.8903,-94.0367,1019.55,11111222 
TABS,ioos:station:wmo:42046:1,2007-03-13T09:00:00Z,27.8903,-94.0367,1019.29,11111222 
TABS,ioos:station:wmo:42046:1,2007-03-13T09:30:00Z,27.8903,-94.0367,1019.41,11111222 
TABS,ioos:station:wmo:42046:1,2007-03-13T10:00:00Z,27.8903,-94.0367,1019.33,11111222 
TABS,ioos:station:wmo:42046:1,2007-03-13T10:30:00Z,27.8903,-94.0367,1019.28,11111222 
TABS,ioos:station:wmo:42046:1,2007-03-13T11:00:00Z,27.8903,-94.0367,1019.7,11111222 
TABS,ioos:station:wmo:42046:1,2007-03-13T11:30:00Z,27.8903,-94.0367,1020.0,11111222 
TABS,ioos:station:wmo:42046:1,2007-03-13T12:00:00Z,27.8903,-94.0367,1020.35,11111222 
TABS,ioos:station:wmo:42046:1,2007-03-13T12:30:00Z,27.8903,-94.0367,1020.46,11111222 
TABS,ioos:station:wmo:42046:1,2007-03-13T13:00:00Z,27.8903,-94.0367,1021.1,11111222 
TABS,ioos:station:wmo:42046:1,2007-03-13T13:30:00Z,27.8903,-94.0367,1021.45,11111222 
TABS,ioos:station:wmo:42046:1,2007-03-13T14:00:00Z,27.8903,-94.0367,1021.9,11111222 
TABS,ioos:station:wmo:42046:1,2007-03-13T14:30:00Z,27.8903,-94.0367,1022.37,11111222 
TABS,ioos:station:wmo:42046:1,2007-03-13T15:00:00Z,27.8903,-94.0367,1022.72,11111222 
TABS,ioos:station:wmo:42046:1,2007-03-13T15:30:00Z,27.8903,-94.0367,1022.45,11111222 
TABS,ioos:station:wmo:42046:1,2007-03-13T16:00:00Z,27.8903,-94.0367,1022.34,11111222 
TABS,ioos:station:wmo:42046:1,2007-03-13T16:30:00Z,27.8903,-94.0367,1022.45,11111222 
TABS,ioos:station:wmo:42046:1,2007-03-13T17:00:00Z,27.8903,-94.0367,1022.33,11111222 
TABS,ioos:station:wmo:42046:1,2007-03-13T17:30:00Z,27.8903,-94.0367,1021.67,11111222 
TABS,ioos:station:wmo:42046:1,2007-03-13T18:00:00Z,27.8903,-94.0367,1021.01,11111222 
TABS,ioos:station:wmo:42046:1,2007-03-13T18:30:00Z,27.8903,-94.0367,1020.22,11111222 
TABS,ioos:station:wmo:42046:1,2007-03-13T19:00:00Z,27.8903,-94.0367,1019.3,11111222 
TABS,ioos:station:wmo:42046:1,2007-03-13T19:30:00Z,27.8903,-94.0367,1018.76,11111222 
TABS,ioos:station:wmo:42046:1,2007-03-13T20:00:00Z,27.8903,-94.0367,1019.1,11111222 
TABS,ioos:station:wmo:42046:1,2007-03-13T20:30:00Z,27.8903,-94.0367,1017.96,11111222 
TABS,ioos:station:wmo:42046:1,2007-03-13T21:00:00Z,27.8903,-94.0367,1017.41,11111222 
TABS,ioos:station:wmo:42046:1,2007-03-13T21:30:00Z,27.8903,-94.0367,1017.11,11111222 
TABS,ioos:station:wmo:42046:1,2007-03-13T22:00:00Z,27.8903,-94.0367,1016.96,11111222 
TABS,ioos:station:wmo:42046:1,2007-03-13T22:30:00Z,27.8903,-94.0367,1017.41,11111222 
TABS,ioos:station:wmo:42046:1,2007-03-13T23:00:00Z,27.8903,-94.0367,1017.23,11111222 
TABS,ioos:station:wmo:42046:1,2007-03-13T23:30:00Z,27.8903,-94.0367,1017.22,11111222 
TABS,ioos:station:wmo:42046:1,2007-03-14T00:00:00Z,27.8903,-94.0367,1017.29,11111222 
TABS,ioos:station:wmo:42046:1,2007-03-14T00:30:00Z,27.8903,-94.0367,1017.08,11111222 
TABS,ioos:station:wmo:42046:1,2007-03-14T01:00:00Z,27.8903,-94.0367,1016.98,11111222 
TABS,ioos:station:wmo:42046:1,2007-03-14T01:30:00Z,27.8903,-94.0367,1017.12,11111222 
TABS,ioos:station:wmo:42046:1,2007-03-14T02:00:00Z,27.8903,-94.0367,1017.6,11111222 
TABS,ioos:station:wmo:42046:1,2007-03-14T02:30:00Z,27.8903,-94.0367,1017.97,11111222 
TABS,ioos:station:wmo:42046:1,2007-03-14T03:00:00Z,27.8903,-94.0367,1018.2,11111222 
TABS,ioos:station:wmo:42046:1,2007-03-14T03:30:00Z,27.8903,-94.0367,1018.01,11111222 
TABS,ioos:station:wmo:42046:1,2007-03-14T04:00:00Z,27.8903,-94.0367,1017.83,11111222 
TABS,ioos:station:wmo:42046:1,2007-03-14T04:30:00Z,27.8903,-94.0367,1017.95,11111222 